Year,Month,Day,Hour,Minute,Value (Times are PST for temperature in C)
2016,08,19,00,00,20.90
2016,08,19,00,01,21.00
2016,08,19,00,02,21.00
2016,08,19,00,03,21.00
2016,08,19,00,04,21.00
2016,08,19,00,05,21.10
2016,08,19,00,06,21.10
2016,08,19,00,07,21.30
2016,08,19,00,08,21.40
2016,08,19,00,09,21.60
2016,08,19,00,10,21.80
2016,08,19,00,11,22.20
2016,08,19,00,12,22.60
2016,08,19,00,13,22.90
2016,08,19,00,14,23.20
2016,08,19,00,15,23.50
2016,08,19,00,16,23.70
2016,08,19,00,17,23.90
2016,08,19,00,18,24.10
2016,08,19,00,19,24.30
2016,08,19,00,20,24.40
2016,08,19,00,21,24.60
2016,08,19,00,22,24.70
2016,08,19,00,23,24.80
2016,08,19,00,24,25.00
2016,08,19,00,25,25.10
2016,08,19,00,26,25.20
2016,08,19,00,27,25.30
2016,08,19,00,28,25.30
2016,08,19,00,29,25.30
2016,08,19,00,30,25.30
2016,08,19,00,31,25.40
2016,08,19,00,32,25.40
2016,08,19,00,33,25.30
2016,08,19,00,34,25.30
2016,08,19,00,35,25.30
2016,08,19,00,36,25.30
2016,08,19,00,37,25.40
2016,08,19,00,38,25.40
2016,08,19,00,39,25.40
2016,08,19,00,40,25.40
2016,08,19,00,41,25.40
2016,08,19,00,42,25.40
2016,08,19,00,43,25.50
2016,08,19,00,44,25.50
2016,08,19,00,45,25.50
2016,08,19,00,46,25.50
2016,08,19,00,47,25.50
2016,08,19,00,48,25.50
2016,08,19,00,49,25.60
2016,08,19,00,50,25.70
2016,08,19,00,51,25.70
2016,08,19,00,52,25.80
2016,08,19,00,53,25.80
2016,08,19,00,54,25.90
2016,08,19,00,55,26.00
2016,08,19,00,56,26.10
2016,08,19,00,57,26.10
2016,08,19,00,58,26.20
2016,08,19,00,59,26.20
2016,08,19,01,00,26.30
2016,08,19,01,01,26.30
2016,08,19,01,02,26.40
2016,08,19,01,03,26.40
2016,08,19,01,04,26.50
2016,08,19,01,05,26.60
2016,08,19,01,06,26.70
2016,08,19,01,07,26.70
2016,08,19,01,08,26.70
2016,08,19,01,09,26.70
2016,08,19,01,10,26.70
2016,08,19,01,11,26.80
2016,08,19,01,12,26.80
2016,08,19,01,13,26.80
2016,08,19,01,14,26.80
2016,08,19,01,15,26.80
2016,08,19,01,16,26.80
2016,08,19,01,17,26.80
2016,08,19,01,18,26.80
2016,08,19,01,19,26.80
2016,08,19,01,20,26.70
2016,08,19,01,21,26.80
2016,08,19,01,22,26.80
2016,08,19,01,23,26.80
2016,08,19,01,24,26.80
2016,08,19,01,25,26.80
2016,08,19,01,26,26.80
2016,08,19,01,27,26.80
2016,08,19,01,28,26.90
2016,08,19,01,29,26.90
2016,08,19,01,30,26.90
2016,08,19,01,31,26.90
2016,08,19,01,32,26.90
2016,08,19,01,33,26.90
2016,08,19,01,34,26.90
2016,08,19,01,35,26.90
2016,08,19,01,36,26.90
2016,08,19,01,37,26.90
2016,08,19,01,38,26.90
2016,08,19,01,39,26.90
2016,08,19,01,40,26.90
2016,08,19,01,41,26.90
2016,08,19,01,42,26.90
2016,08,19,01,43,26.90
2016,08,19,01,44,26.90
2016,08,19,01,45,26.80
2016,08,19,01,46,26.80
2016,08,19,01,47,26.80
2016,08,19,01,48,26.70
2016,08,19,01,49,26.70
2016,08,19,01,50,26.60
2016,08,19,01,51,26.60
2016,08,19,01,52,26.50
2016,08,19,01,53,26.40
2016,08,19,01,54,26.40
2016,08,19,01,55,26.30
2016,08,19,01,56,26.30
2016,08,19,01,57,26.20
2016,08,19,01,58,26.20
2016,08,19,01,59,26.20
2016,08,19,02,00,26.20
2016,08,19,02,01,26.10
2016,08,19,02,02,26.10
2016,08,19,02,03,26.10
2016,08,19,02,04,26.10
2016,08,19,02,05,26.00
2016,08,19,02,06,26.00
2016,08,19,02,07,25.90
2016,08,19,02,08,25.90
2016,08,19,02,09,25.80
2016,08,19,02,10,25.80
2016,08,19,02,11,25.80
2016,08,19,02,12,25.70
2016,08,19,02,13,25.70
2016,08,19,02,14,25.70
2016,08,19,02,15,25.60
2016,08,19,02,16,25.60
2016,08,19,02,17,25.60
2016,08,19,02,18,25.60
2016,08,19,02,19,25.60
2016,08,19,02,20,25.60
2016,08,19,02,21,25.60
2016,08,19,02,22,25.60
2016,08,19,02,23,25.60
2016,08,19,02,24,25.60
2016,08,19,02,25,25.60
2016,08,19,02,26,25.70
2016,08,19,02,27,25.70
2016,08,19,02,28,25.80
2016,08,19,02,29,25.80
2016,08,19,02,30,25.90
2016,08,19,02,31,25.90
2016,08,19,02,32,26.00
2016,08,19,02,33,26.00
2016,08,19,02,34,26.00
2016,08,19,02,35,26.00
2016,08,19,02,36,26.00
2016,08,19,02,37,26.10
2016,08,19,02,38,26.10
2016,08,19,02,39,26.10
2016,08,19,02,40,26.10
2016,08,19,02,41,26.10
2016,08,19,02,42,26.10
2016,08,19,02,43,26.10
2016,08,19,02,44,26.10
2016,08,19,02,45,26.00
2016,08,19,02,46,26.00
2016,08,19,02,47,26.00
2016,08,19,02,48,26.00
2016,08,19,02,49,26.00
2016,08,19,02,50,25.90
2016,08,19,02,51,25.90
2016,08,19,02,52,26.00
2016,08,19,02,53,26.00
2016,08,19,02,54,26.00
2016,08,19,02,55,26.10
2016,08,19,02,56,26.10
2016,08,19,02,57,26.10
2016,08,19,02,58,26.10
2016,08,19,02,59,26.10
2016,08,19,03,00,26.00
2016,08,19,03,01,26.00
2016,08,19,03,02,25.90
2016,08,19,03,03,25.90
2016,08,19,03,04,25.90
2016,08,19,03,05,25.90
2016,08,19,03,06,25.90
2016,08,19,03,07,25.90
2016,08,19,03,08,25.90
2016,08,19,03,09,25.90
2016,08,19,03,10,25.90
2016,08,19,03,11,25.90
2016,08,19,03,12,25.80
2016,08,19,03,13,25.80
2016,08,19,03,14,25.80
2016,08,19,03,15,25.80
2016,08,19,03,16,25.80
2016,08,19,03,17,25.70
2016,08,19,03,18,25.70
2016,08,19,03,19,25.70
2016,08,19,03,20,25.80
2016,08,19,03,21,25.80
2016,08,19,03,22,25.80
2016,08,19,03,23,25.80
2016,08,19,03,24,25.70
2016,08,19,03,25,25.70
2016,08,19,03,26,25.70
2016,08,19,03,27,25.70
2016,08,19,03,28,25.80
2016,08,19,03,29,25.70
2016,08,19,03,30,25.70
2016,08,19,03,31,25.70
2016,08,19,03,32,25.80
2016,08,19,03,33,25.80
2016,08,19,03,34,25.80
2016,08,19,03,35,25.70
2016,08,19,03,36,25.70
2016,08,19,03,37,25.70
2016,08,19,03,38,25.70
2016,08,19,03,39,25.60
2016,08,19,03,40,25.60
2016,08,19,03,41,25.60
2016,08,19,03,42,25.60
2016,08,19,03,43,25.60
2016,08,19,03,44,25.60
2016,08,19,03,45,25.60
2016,08,19,03,46,25.50
2016,08,19,03,47,25.50
2016,08,19,03,48,25.40
2016,08,19,03,49,25.30
2016,08,19,03,50,25.20
2016,08,19,03,51,25.20
2016,08,19,03,52,25.20
2016,08,19,03,53,25.30
2016,08,19,03,54,25.30
2016,08,19,03,55,25.30
2016,08,19,03,56,25.30
2016,08,19,03,57,25.30
2016,08,19,03,58,25.30
2016,08,19,03,59,25.30
2016,08,19,04,00,25.20
2016,08,19,04,01,25.20
2016,08,19,04,02,25.20
2016,08,19,04,03,25.20
2016,08,19,04,04,25.20
2016,08,19,04,05,25.20
2016,08,19,04,06,25.10
2016,08,19,04,07,25.10
2016,08,19,04,08,25.20
2016,08,19,04,09,25.20
2016,08,19,04,10,25.20
2016,08,19,04,11,25.30
2016,08,19,04,12,25.30
2016,08,19,04,13,25.30
2016,08,19,04,14,25.30
2016,08,19,04,15,25.40
2016,08,19,04,16,25.40
2016,08,19,04,17,25.40
2016,08,19,04,18,25.40
2016,08,19,04,19,25.40
2016,08,19,04,20,25.50
2016,08,19,04,21,25.50
2016,08,19,04,22,25.50
2016,08,19,04,23,25.50
2016,08,19,04,24,25.50
2016,08,19,04,25,25.50
2016,08,19,04,26,25.50
2016,08,19,04,27,25.60
2016,08,19,04,28,25.60
2016,08,19,04,29,25.60
2016,08,19,04,30,25.50
2016,08,19,04,31,25.50
2016,08,19,04,32,25.50
2016,08,19,04,33,25.40
2016,08,19,04,34,25.40
2016,08,19,04,35,25.40
2016,08,19,04,36,25.40
2016,08,19,04,37,25.30
2016,08,19,04,38,25.30
2016,08,19,04,39,25.30
2016,08,19,04,40,25.20
2016,08,19,04,41,25.20
2016,08,19,04,42,25.10
2016,08,19,04,43,25.10
2016,08,19,04,44,25.00
2016,08,19,04,45,25.00
2016,08,19,04,46,24.90
2016,08,19,04,47,24.80
2016,08,19,04,48,24.80
2016,08,19,04,49,24.70
2016,08,19,04,50,24.70
2016,08,19,04,51,24.60
2016,08,19,04,52,24.60
2016,08,19,04,53,24.60
2016,08,19,04,54,24.50
2016,08,19,04,55,24.50
2016,08,19,04,56,24.40
2016,08,19,04,57,24.40
2016,08,19,04,58,24.30
2016,08,19,04,59,24.30
2016,08,19,05,00,24.30
2016,08,19,05,01,24.30
2016,08,19,05,02,24.30
2016,08,19,05,03,24.30
2016,08,19,05,04,24.30
2016,08,19,05,05,24.20
2016,08,19,05,06,24.20
2016,08,19,05,07,24.20
2016,08,19,05,08,24.20
2016,08,19,05,09,24.20
2016,08,19,05,10,24.20
2016,08,19,05,11,24.20
2016,08,19,05,12,24.20
2016,08,19,05,13,24.20
2016,08,19,05,14,24.20
2016,08,19,05,15,24.20
2016,08,19,05,16,24.10
2016,08,19,05,17,24.10
2016,08,19,05,18,24.10
2016,08,19,05,19,24.10
2016,08,19,05,20,24.10
2016,08,19,05,21,24.10
2016,08,19,05,22,24.10
2016,08,19,05,23,24.10
2016,08,19,05,24,24.00
2016,08,19,05,25,24.00
2016,08,19,05,26,24.00
2016,08,19,05,27,23.90
2016,08,19,05,28,23.90
2016,08,19,05,29,23.90
2016,08,19,05,30,23.90
2016,08,19,05,31,23.90
2016,08,19,05,32,23.90
2016,08,19,05,33,23.90
2016,08,19,05,34,23.90
2016,08,19,05,35,23.90
2016,08,19,05,36,23.90
2016,08,19,05,37,23.90
2016,08,19,05,38,23.80
2016,08,19,05,39,23.80
2016,08,19,05,40,23.80
2016,08,19,05,41,23.80
2016,08,19,05,42,23.80
2016,08,19,05,43,23.70
2016,08,19,05,44,23.70
2016,08,19,05,45,23.70
2016,08,19,05,46,23.60
2016,08,19,05,47,23.60
2016,08,19,05,48,23.50
2016,08,19,05,49,23.40
2016,08,19,05,50,23.40
2016,08,19,05,51,23.40
2016,08,19,05,52,23.30
2016,08,19,05,53,23.30
2016,08,19,05,54,23.30
2016,08,19,05,55,23.30
2016,08,19,05,56,23.30
2016,08,19,05,57,23.30
2016,08,19,05,58,23.30
2016,08,19,05,59,23.20
2016,08,19,06,00,23.20
2016,08,19,06,01,23.20
2016,08,19,06,02,23.20
2016,08,19,06,03,23.20
2016,08,19,06,04,23.10
2016,08,19,06,05,23.10
2016,08,19,06,06,23.00
2016,08,19,06,07,22.90
2016,08,19,06,08,22.90
2016,08,19,06,09,22.80
2016,08,19,06,10,22.80
2016,08,19,06,11,22.80
2016,08,19,06,12,22.80
2016,08,19,06,13,22.80
2016,08,19,06,14,22.80
2016,08,19,06,15,22.70
2016,08,19,06,16,22.70
2016,08,19,06,17,22.70
2016,08,19,06,18,22.60
2016,08,19,06,19,22.60
2016,08,19,06,20,22.60
2016,08,19,06,21,22.70
2016,08,19,06,22,22.70
2016,08,19,06,23,22.70
2016,08,19,06,24,22.70
2016,08,19,06,25,22.80
2016,08,19,06,26,22.80
2016,08,19,06,27,22.90
2016,08,19,06,28,23.00
2016,08,19,06,29,23.10
2016,08,19,06,30,23.10
2016,08,19,06,31,23.20
2016,08,19,06,32,23.30
2016,08,19,06,33,23.40
2016,08,19,06,34,23.50
2016,08,19,06,35,23.50
2016,08,19,06,36,23.60
2016,08,19,06,37,23.60
2016,08,19,06,38,23.70
2016,08,19,06,39,23.70
2016,08,19,06,40,23.70
2016,08,19,06,41,23.70
2016,08,19,06,42,23.70
2016,08,19,06,43,23.70
2016,08,19,06,44,23.70
2016,08,19,06,45,23.70
2016,08,19,06,46,23.70
2016,08,19,06,47,23.80
2016,08,19,06,48,23.80
2016,08,19,06,49,23.70
2016,08,19,06,50,23.70
2016,08,19,06,51,23.70
2016,08,19,06,52,23.70
2016,08,19,06,53,23.70
2016,08,19,06,54,23.80
2016,08,19,06,55,23.80
2016,08,19,06,56,23.90
2016,08,19,06,57,24.00
2016,08,19,06,58,24.10
2016,08,19,06,59,24.20
2016,08,19,07,00,24.30
2016,08,19,07,01,24.30
2016,08,19,07,02,24.40
2016,08,19,07,03,24.40
2016,08,19,07,04,24.40
2016,08,19,07,05,24.40
2016,08,19,07,06,24.50
2016,08,19,07,07,24.50
2016,08,19,07,08,24.60
2016,08,19,07,09,24.60
2016,08,19,07,10,24.60
2016,08,19,07,11,24.60
2016,08,19,07,12,24.70
2016,08,19,07,13,24.70
2016,08,19,07,14,24.70
2016,08,19,07,15,24.70
2016,08,19,07,16,24.70
2016,08,19,07,17,24.80
2016,08,19,07,18,24.80
2016,08,19,07,19,24.80
2016,08,19,07,20,24.80
2016,08,19,07,21,24.80
2016,08,19,07,22,24.80
2016,08,19,07,23,24.90
2016,08,19,07,24,24.90
2016,08,19,07,25,25.00
2016,08,19,07,26,25.00
2016,08,19,07,27,25.00
2016,08,19,07,28,25.10
2016,08,19,07,29,25.10
2016,08,19,07,30,25.20
2016,08,19,07,31,25.20
2016,08,19,07,32,25.20
2016,08,19,07,33,25.20
2016,08,19,07,34,25.20
2016,08,19,07,35,25.20
2016,08,19,07,36,25.20
2016,08,19,07,37,25.20
2016,08,19,07,38,25.20
2016,08,19,07,39,25.20
2016,08,19,07,40,25.20
2016,08,19,07,41,25.20
2016,08,19,07,42,25.20
2016,08,19,07,43,25.20
2016,08,19,07,44,25.20
2016,08,19,07,45,25.20
2016,08,19,07,46,25.20
2016,08,19,07,47,25.30
2016,08,19,07,48,25.30
2016,08,19,07,49,25.40
2016,08,19,07,50,25.40
2016,08,19,07,51,25.50
2016,08,19,07,52,25.50
2016,08,19,07,53,25.60
2016,08,19,07,54,25.60
2016,08,19,07,55,25.70
2016,08,19,07,56,25.70
2016,08,19,07,57,25.70
2016,08,19,07,58,25.80
2016,08,19,07,59,25.80
2016,08,19,08,00,25.80
2016,08,19,08,01,25.80
2016,08,19,08,02,25.90
2016,08,19,08,03,25.90
2016,08,19,08,04,26.00
2016,08,19,08,05,26.10
2016,08,19,08,06,26.10
2016,08,19,08,07,26.10
2016,08,19,08,08,26.20
2016,08,19,08,09,26.30
2016,08,19,08,10,26.30
2016,08,19,08,11,26.40
2016,08,19,08,12,26.40
2016,08,19,08,13,26.50
2016,08,19,08,14,26.60
2016,08,19,08,15,26.60
2016,08,19,08,16,26.70
2016,08,19,08,17,26.70
2016,08,19,08,18,26.80
2016,08,19,08,19,26.80
2016,08,19,08,20,26.80
2016,08,19,08,21,26.80
2016,08,19,08,22,26.90
2016,08,19,08,23,26.90
2016,08,19,08,24,26.90
2016,08,19,08,25,26.90
2016,08,19,08,26,26.90
2016,08,19,08,27,26.90
2016,08,19,08,28,26.90
2016,08,19,08,29,26.90
2016,08,19,08,30,26.90
2016,08,19,08,31,26.90
2016,08,19,08,32,26.90
2016,08,19,08,33,26.90
2016,08,19,08,34,26.90
2016,08,19,08,35,26.90
2016,08,19,08,36,27.00
2016,08,19,08,37,27.00
2016,08,19,08,38,27.00
2016,08,19,08,39,27.10
2016,08,19,08,40,27.10
2016,08,19,08,41,27.10
2016,08,19,08,42,27.10
2016,08,19,08,43,27.10
2016,08,19,08,44,27.10
2016,08,19,08,45,27.10
2016,08,19,08,46,27.00
2016,08,19,08,47,27.00
2016,08,19,08,48,27.00
2016,08,19,08,49,26.90
2016,08,19,08,50,26.90
2016,08,19,08,51,26.90
2016,08,19,08,52,26.90
2016,08,19,08,53,26.90
2016,08,19,08,54,26.90
2016,08,19,08,55,26.90
2016,08,19,08,56,27.00
2016,08,19,08,57,27.00
2016,08,19,08,58,27.10
2016,08,19,08,59,27.10
2016,08,19,09,00,27.10
2016,08,19,09,01,27.10
2016,08,19,09,02,27.10
2016,08,19,09,03,27.20
2016,08,19,09,04,27.20
2016,08,19,09,05,27.20
2016,08,19,09,06,27.30
2016,08,19,09,07,27.30
2016,08,19,09,08,27.30
2016,08,19,09,09,27.30
2016,08,19,09,10,27.30
2016,08,19,09,11,27.40
2016,08,19,09,12,27.40
2016,08,19,09,13,27.40
2016,08,19,09,14,27.40
2016,08,19,09,15,27.40
2016,08,19,09,16,27.50
2016,08,19,09,17,27.50
2016,08,19,09,18,27.60
2016,08,19,09,19,27.70
2016,08,19,09,20,27.70
2016,08,19,09,21,27.70
2016,08,19,09,22,27.70
2016,08,19,09,23,27.80
2016,08,19,09,24,27.80
2016,08,19,09,25,27.80
2016,08,19,09,26,27.80
2016,08,19,09,27,27.90
2016,08,19,09,28,28.00
2016,08,19,09,29,28.00
2016,08,19,09,30,28.00
2016,08,19,09,31,28.10
2016,08,19,09,32,28.10
2016,08,19,09,33,28.10
2016,08,19,09,34,28.20
2016,08,19,09,35,28.20
2016,08,19,09,36,28.20
2016,08,19,09,37,28.20
2016,08,19,09,38,28.30
2016,08,19,09,39,28.30
2016,08,19,09,40,28.30
2016,08,19,09,41,28.30
2016,08,19,09,42,28.30
2016,08,19,09,43,28.30
2016,08,19,09,44,28.30
2016,08,19,09,45,28.40
2016,08,19,09,46,28.40
2016,08,19,09,47,28.50
2016,08,19,09,48,28.60
2016,08,19,09,49,28.60
2016,08,19,09,50,28.60
2016,08,19,09,51,28.60
2016,08,19,09,52,28.60
2016,08,19,09,53,28.70
2016,08,19,09,54,28.70
2016,08,19,09,55,28.70
2016,08,19,09,56,28.70
2016,08,19,09,57,28.70
2016,08,19,09,58,28.60
2016,08,19,09,59,28.60
2016,08,19,10,00,28.60
2016,08,19,10,01,28.60
2016,08,19,10,02,28.60
2016,08,19,10,03,28.60
2016,08,19,10,04,28.60
2016,08,19,10,05,28.60
2016,08,19,10,06,28.70
2016,08,19,10,07,28.70
2016,08,19,10,08,28.70
2016,08,19,10,09,28.70
2016,08,19,10,10,28.70
2016,08,19,10,11,28.70
2016,08,19,10,12,28.70
2016,08,19,10,13,28.70
2016,08,19,10,14,28.70
2016,08,19,10,15,28.70
2016,08,19,10,16,28.70
2016,08,19,10,17,28.70
2016,08,19,10,18,28.70
2016,08,19,10,19,28.70
2016,08,19,10,20,28.70
2016,08,19,10,21,28.70
2016,08,19,10,22,28.70
2016,08,19,10,23,28.70
2016,08,19,10,24,28.80
2016,08,19,10,25,28.80
2016,08,19,10,26,28.80
2016,08,19,10,27,28.90
2016,08,19,10,28,29.00
2016,08,19,10,29,29.00
2016,08,19,10,30,29.10
2016,08,19,10,31,29.20
2016,08,19,10,32,29.20
2016,08,19,10,33,29.20
2016,08,19,10,34,29.20
2016,08,19,10,35,29.30
2016,08,19,10,36,29.30
2016,08,19,10,37,29.30
2016,08,19,10,38,29.40
2016,08,19,10,39,29.40
2016,08,19,10,40,29.40
2016,08,19,10,41,29.40
2016,08,19,10,42,29.40
2016,08,19,10,43,29.30
2016,08,19,10,44,29.30
2016,08,19,10,45,29.30
2016,08,19,10,46,29.30
2016,08,19,10,47,29.30
2016,08,19,10,48,29.30
2016,08,19,10,49,29.30
2016,08,19,10,50,29.30
2016,08,19,10,51,29.30
2016,08,19,10,52,29.30
2016,08,19,10,53,29.30
2016,08,19,10,54,29.30
2016,08,19,10,55,29.30
2016,08,19,10,56,29.30
2016,08,19,10,57,29.30
2016,08,19,10,58,29.40
2016,08,19,10,59,29.40
2016,08,19,11,00,29.40
2016,08,19,11,01,29.40
2016,08,19,11,02,29.40
2016,08,19,11,03,29.50
2016,08,19,11,04,29.50
2016,08,19,11,05,29.60
2016,08,19,11,06,29.60
2016,08,19,11,07,29.70
2016,08,19,11,08,29.80
2016,08,19,11,09,29.80
2016,08,19,11,10,29.90
2016,08,19,11,11,29.90
2016,08,19,11,12,29.80
2016,08,19,11,13,29.80
2016,08,19,11,14,29.70
2016,08,19,11,15,29.70
2016,08,19,11,16,29.70
2016,08,19,11,17,29.70
2016,08,19,11,18,29.60
2016,08,19,11,19,29.60
2016,08,19,11,20,29.60
2016,08,19,11,21,29.70
2016,08,19,11,22,29.70
2016,08,19,11,23,29.70
2016,08,19,11,24,29.70
2016,08,19,11,25,29.70
2016,08,19,11,26,29.70
2016,08,19,11,27,29.70
2016,08,19,11,28,29.70
2016,08,19,11,29,29.70
2016,08,19,11,30,29.70
2016,08,19,11,31,29.70
2016,08,19,11,32,29.70
2016,08,19,11,33,29.70
2016,08,19,11,34,29.70
2016,08,19,11,35,29.70
2016,08,19,11,36,29.70
2016,08,19,11,37,29.70
2016,08,19,11,38,29.70
2016,08,19,11,39,29.70
2016,08,19,11,40,29.70
2016,08,19,11,41,29.70
2016,08,19,11,42,29.60
2016,08,19,11,43,29.60
2016,08,19,11,44,29.70
2016,08,19,11,45,29.70
2016,08,19,11,46,29.80
2016,08,19,11,47,29.80
2016,08,19,11,48,29.80
2016,08,19,11,49,29.80
2016,08,19,11,50,29.80
2016,08,19,11,51,29.80
2016,08,19,11,52,29.80
2016,08,19,11,53,29.80
2016,08,19,11,54,29.90
2016,08,19,11,55,29.90
2016,08,19,11,56,29.90
2016,08,19,11,57,29.90
2016,08,19,11,58,30.00
2016,08,19,11,59,30.00
2016,08,19,12,00,30.10
2016,08,19,12,01,30.00
2016,08,19,12,02,30.00
2016,08,19,12,03,30.00
2016,08,19,12,04,29.90
2016,08,19,12,05,29.90
2016,08,19,12,06,29.90
2016,08,19,12,07,29.90
2016,08,19,12,08,29.90
2016,08,19,12,09,29.90
2016,08,19,12,10,29.80
2016,08,19,12,11,29.90
2016,08,19,12,12,30.00
2016,08,19,12,13,30.00
2016,08,19,12,14,30.00
2016,08,19,12,15,30.00
2016,08,19,12,16,30.00
2016,08,19,12,17,30.00
2016,08,19,12,18,30.00
2016,08,19,12,19,30.10
2016,08,19,12,20,30.10
2016,08,19,12,21,30.20
2016,08,19,12,22,30.20
2016,08,19,12,23,30.20
2016,08,19,12,24,30.20
2016,08,19,12,25,30.20
2016,08,19,12,26,30.10
2016,08,19,12,27,30.10
2016,08,19,12,28,30.10
2016,08,19,12,29,30.10
2016,08,19,12,30,30.10
2016,08,19,12,31,30.20
2016,08,19,12,32,30.20
2016,08,19,12,33,30.20
2016,08,19,12,34,30.20
2016,08,19,12,35,30.20
2016,08,19,12,36,30.30
2016,08,19,12,37,30.30
2016,08,19,12,38,30.40
2016,08,19,12,39,30.40
2016,08,19,12,40,30.40
2016,08,19,12,41,30.40
2016,08,19,12,42,30.40
2016,08,19,12,43,30.40
2016,08,19,12,44,30.50
2016,08,19,12,45,30.60
2016,08,19,12,46,30.60
2016,08,19,12,47,30.60
2016,08,19,12,48,30.50
2016,08,19,12,49,30.40
2016,08,19,12,50,30.40
2016,08,19,12,51,30.30
2016,08,19,12,52,30.30
2016,08,19,12,53,30.40
2016,08,19,12,54,30.40
2016,08,19,12,55,30.40
2016,08,19,12,56,30.30
2016,08,19,12,57,30.30
2016,08,19,12,58,30.30
2016,08,19,12,59,30.30
2016,08,19,13,00,30.30
2016,08,19,13,01,30.30
2016,08,19,13,02,30.30
2016,08,19,13,03,30.40
2016,08,19,13,04,30.40
2016,08,19,13,05,30.40
2016,08,19,13,06,30.50
2016,08,19,13,07,30.60
2016,08,19,13,08,30.60
2016,08,19,13,09,30.60
2016,08,19,13,10,30.60
2016,08,19,13,11,30.60
2016,08,19,13,12,30.70
2016,08,19,13,13,30.60
2016,08,19,13,14,30.70
2016,08,19,13,15,30.70
2016,08,19,13,16,30.70
2016,08,19,13,17,30.70
2016,08,19,13,18,30.70
2016,08,19,13,19,30.70
2016,08,19,13,20,30.70
2016,08,19,13,21,30.70
2016,08,19,13,22,30.70
2016,08,19,13,23,30.70
2016,08,19,13,24,30.80
2016,08,19,13,25,30.80
2016,08,19,13,26,30.80
2016,08,19,13,27,30.90
2016,08,19,13,28,30.90
2016,08,19,13,29,30.90
2016,08,19,13,30,31.00
2016,08,19,13,31,31.00
2016,08,19,13,32,30.90
2016,08,19,13,33,30.90
2016,08,19,13,34,30.90
2016,08,19,13,35,30.90
2016,08,19,13,36,31.00
2016,08,19,13,37,31.00
2016,08,19,13,38,31.00
2016,08,19,13,39,31.00
2016,08,19,13,40,31.10
2016,08,19,13,41,31.10
2016,08,19,13,42,31.10
2016,08,19,13,43,31.10
2016,08,19,13,44,31.10
2016,08,19,13,45,31.20
2016,08,19,13,46,31.20
2016,08,19,13,47,31.20
2016,08,19,13,48,31.10
2016,08,19,13,49,31.10
2016,08,19,13,50,31.10
2016,08,19,13,51,31.10
2016,08,19,13,52,31.20
2016,08,19,13,53,31.30
2016,08,19,13,54,31.40
2016,08,19,13,55,31.40
2016,08,19,13,56,31.50
2016,08,19,13,57,31.50
2016,08,19,13,58,31.60
2016,08,19,13,59,31.70
2016,08,19,14,00,31.70
2016,08,19,14,01,31.70
2016,08,19,14,02,31.70
2016,08,19,14,03,31.80
2016,08,19,14,04,31.80
2016,08,19,14,05,31.80
2016,08,19,14,06,31.90
2016,08,19,14,07,31.90
2016,08,19,14,08,31.90
2016,08,19,14,09,31.90
2016,08,19,14,10,31.90
2016,08,19,14,11,31.90
2016,08,19,14,12,31.90
2016,08,19,14,13,31.90
2016,08,19,14,14,31.90
2016,08,19,14,15,32.00
2016,08,19,14,16,32.00
2016,08,19,14,17,32.00
2016,08,19,14,18,32.00
2016,08,19,14,19,31.90
2016,08,19,14,20,31.90
2016,08,19,14,21,31.80
2016,08,19,14,22,31.80
2016,08,19,14,23,31.80
2016,08,19,14,24,31.80
2016,08,19,14,25,31.70
2016,08,19,14,26,31.80
2016,08,19,14,27,31.80
2016,08,19,14,28,31.90
2016,08,19,14,29,32.00
2016,08,19,14,30,32.10
2016,08,19,14,31,32.10
2016,08,19,14,32,32.10
2016,08,19,14,33,32.20
2016,08,19,14,34,32.30
2016,08,19,14,35,32.50
2016,08,19,14,36,32.60
2016,08,19,14,37,32.70
2016,08,19,14,38,32.80
2016,08,19,14,39,32.90
2016,08,19,14,40,33.00
2016,08,19,14,41,33.10
2016,08,19,14,42,33.00
2016,08,19,14,43,32.90
2016,08,19,14,44,32.70
2016,08,19,14,45,32.60
2016,08,19,14,46,32.40
2016,08,19,14,47,32.30
2016,08,19,14,48,32.30
2016,08,19,14,49,32.30
2016,08,19,14,50,32.30
2016,08,19,14,51,32.30
2016,08,19,14,52,32.30
2016,08,19,14,53,32.30
2016,08,19,14,54,32.30
2016,08,19,14,55,32.30
2016,08,19,14,56,32.30
2016,08,19,14,57,32.40
2016,08,19,14,58,32.40
2016,08,19,14,59,32.50
2016,08,19,15,00,32.50
2016,08,19,15,01,32.50
2016,08,19,15,02,32.60
2016,08,19,15,03,32.60
2016,08,19,15,04,32.60
2016,08,19,15,05,32.60
2016,08,19,15,06,32.60
2016,08,19,15,07,32.50
2016,08,19,15,08,32.50
2016,08,19,15,09,32.40
2016,08,19,15,10,32.40
2016,08,19,15,11,32.40
2016,08,19,15,12,32.40
2016,08,19,15,13,32.50
2016,08,19,15,14,32.50
2016,08,19,15,15,32.60
2016,08,19,15,16,32.50
2016,08,19,15,17,32.50
2016,08,19,15,18,32.50
2016,08,19,15,19,32.50
2016,08,19,15,20,32.60
2016,08,19,15,21,32.60
2016,08,19,15,22,32.60
2016,08,19,15,23,32.60
2016,08,19,15,24,32.60
2016,08,19,15,25,32.60
2016,08,19,15,26,32.60
2016,08,19,15,27,32.60
2016,08,19,15,28,32.60
2016,08,19,15,29,32.60
2016,08,19,15,30,32.60
2016,08,19,15,31,32.70
2016,08,19,15,32,32.70
2016,08,19,15,33,32.70
2016,08,19,15,34,32.80
2016,08,19,15,35,32.80
2016,08,19,15,36,32.90
2016,08,19,15,37,32.90
2016,08,19,15,38,32.90
2016,08,19,15,39,32.90
2016,08,19,15,40,33.00
2016,08,19,15,41,33.10
2016,08,19,15,42,33.20
2016,08,19,15,43,33.20
2016,08,19,15,44,33.20
2016,08,19,15,45,33.10
2016,08,19,15,46,33.10
2016,08,19,15,47,33.10
2016,08,19,15,48,33.00
2016,08,19,15,49,33.00
2016,08,19,15,50,32.90
2016,08,19,15,51,32.80
2016,08,19,15,52,32.80
2016,08,19,15,53,32.80
2016,08,19,15,54,32.80
2016,08,19,15,55,32.70
2016,08,19,15,56,32.70
2016,08,19,15,57,32.60
2016,08,19,15,58,32.50
2016,08,19,15,59,32.40
2016,08,19,16,00,32.40
2016,08,19,16,01,32.40
2016,08,19,16,02,32.40
2016,08,19,16,03,32.50
2016,08,19,16,04,32.50
2016,08,19,16,05,32.50
2016,08,19,16,06,32.40
2016,08,19,16,07,32.40
2016,08,19,16,08,32.40
2016,08,19,16,09,32.40
2016,08,19,16,10,32.50
2016,08,19,16,11,32.50
2016,08,19,16,12,32.50
2016,08,19,16,13,32.50
2016,08,19,16,14,32.60
2016,08,19,16,15,32.60
2016,08,19,16,16,32.60
2016,08,19,16,17,32.70
2016,08,19,16,18,32.70
2016,08,19,16,19,32.60
2016,08,19,16,20,32.60
2016,08,19,16,21,32.70
2016,08,19,16,22,32.70
2016,08,19,16,23,32.70
2016,08,19,16,24,32.80
2016,08,19,16,25,32.80
2016,08,19,16,26,32.90
2016,08,19,16,27,32.90
2016,08,19,16,28,33.00
2016,08,19,16,29,33.00
2016,08,19,16,30,33.00
2016,08,19,16,31,33.00
2016,08,19,16,32,33.10
2016,08,19,16,33,33.10
2016,08,19,16,34,33.10
2016,08,19,16,35,33.10
2016,08,19,16,36,33.00
2016,08,19,16,37,32.90
2016,08,19,16,38,32.80
2016,08,19,16,39,32.70
2016,08,19,16,40,32.50
2016,08,19,16,41,32.50
2016,08,19,16,42,32.40
2016,08,19,16,43,32.40
2016,08,19,16,44,32.40
2016,08,19,16,45,32.40
2016,08,19,16,46,32.40
2016,08,19,16,47,32.40
2016,08,19,16,48,32.40
2016,08,19,16,49,32.40
2016,08,19,16,50,32.40
2016,08,19,16,51,32.40
2016,08,19,16,52,32.40
2016,08,19,16,53,32.40
2016,08,19,16,54,32.40
2016,08,19,16,55,32.40
2016,08,19,16,56,32.40
2016,08,19,16,57,32.40
2016,08,19,16,58,32.30
2016,08,19,16,59,32.30
2016,08,19,17,00,32.30
2016,08,19,17,01,32.30
2016,08,19,17,02,32.30
2016,08,19,17,03,32.30
2016,08,19,17,04,32.30
2016,08,19,17,05,32.30
2016,08,19,17,06,32.40
2016,08,19,17,07,32.40
2016,08,19,17,08,32.40
2016,08,19,17,09,32.40
2016,08,19,17,10,32.40
2016,08,19,17,11,32.40
2016,08,19,17,12,32.50
2016,08,19,17,13,32.50
2016,08,19,17,14,32.60
2016,08,19,17,15,32.60
2016,08,19,17,16,32.70
2016,08,19,17,17,32.70
2016,08,19,17,18,32.70
2016,08,19,17,19,32.70